This is the latest recevied weather packets stored in our database for station/object KF0RZX-13. If no packets are shown the sender has not sent any weather packets the latest 10 day(s).
| Time | Temp. | Humidity | Pressure | Rain* | Wind** | Luminosity | Snow |
|---|---|---|---|---|---|---|---|
| 1788150776 | 18.89° C | 56% | 1019.6 hPa | 0 mm | - | - | - |
| 1788148972 | 18.89° C | 56% | 1019.3 hPa | 0 mm | - | - | - |
| 1788147166 | 18.89° C | 56% | 1019.3 hPa | 0 mm | - | - | - |
| 1788145361 | 18.89° C | 56% | 1019.3 hPa | 0 mm | - | - | - |
| 1788143556 | 21.11° C | 49% | 1018.6 hPa | 0 mm | - | - | - |
| 1788141751 | 21.11° C | 49% | 1018.6 hPa | 0 mm | - | - | - |
| 1788139946 | 22.78° C | 44% | 1018.6 hPa | 0 mm | - | - | - |
| 1788138145 | 23.89° C | 41% | 1018.3 hPa | 0 mm | - | - | - |
| 1788136336 | 27.22° C | 32% | 1018.3 hPa | 0 mm | - | - | - |
| 1788134531 | 26.11° C | 34% | 1017.9 hPa | 0 mm | - | - | - |
| 1788132726 | 27.22° C | 32% | 1018.3 hPa | 0 mm | - | - | - |
| 1788130921 | 27.22° C | 32% | 1018.3 hPa | 0 mm | - | - | - |
| 1788129116 | 27.22° C | 32% | 1018.3 hPa | 0 mm | - | - | - |
| 1788127311 | 26.11° C | 34% | 1018.3 hPa | 0 mm | - | - | - |
| 1788125506 | 27.78° C | 28% | 1018.6 hPa | 0 mm | - | - | - |
| 1788123701 | 30° C | 25% | 1017.9 hPa | 0 mm | - | - | - |
| 1788121897 | 31.11° C | 24% | 1017.3 hPa | 0 mm | - | - | - |
| 1788120103 | 31.11° C | 24% | 1017.3 hPa | 0 mm | - | - | - |
| 1788118266 | 30° C | 25% | 1017.3 hPa | 0 mm | - | - | - |
| 1788116461 | 30° C | 27% | 1016.9 hPa | 0 mm | - | - | - |
| 1788114657 | 28.89° C | 27% | 1017.3 hPa | 0 mm | - | - | - |
| 1788112853 | 28.89° C | 29% | 1017.3 hPa | 0 mm | - | - | - |
| 1788111046 | 27.78° C | 30% | 1017.6 hPa | 0 mm | - | - | - |
| 1788109241 | 27.22° C | 30% | 1017.9 hPa | 0 mm | - | - | - |
| 1788107437 | 28.89° C | 29% | 1018.3 hPa | 0 mm | - | - | - |
* Rain latest hour (hover to see other rain measurements)
** Current wind speed in m/s (hover to see current wind gust speed)